Probability
0 0 0 0 0 0 0 0 0 0 0 0 0 0 0 0 0 0 0 0 1 8 12 7 3 3 2 1 0 0 0 0 0 0 0 0 0 0 0 0 0 0 0 0 0 0 0 0 0
0 0 0 0 0 0 0 0 0 0 0 0 0 0 0 0 0 0 0 0 2 7 11 8 4 3 3 1 0 0 0 0 0 0 0 0 0 0 0 0 0 0 0 0 0 0 0 0 0
0 0 0 0 0 0 0 0 0 0 0 0 0 0 0 0 1 0 1 2 3 7 11 11 7 4 3 2 2 2 1 0 0 0 0 0 0 0 0 0 0 0 0 0 0 0 0 0 0
0 0 0 0 0 0 0 0 0 0 1 2 1 0 1 1 1 0 1 3 5 7 11 13 10 5 4 3 3 3 2 1 0 0 0 0 0 0 0 0 0 0 0 0 0 0 0 0 0
0 0 0 0 0 0 0 0 0 1 2 2 2 1 2 3 3 3 4 5 6 6 10 14 12 6 5 4 3 3 2 1 0 0 0 0 0 0 0 0 0 0 0 0 0 0 0 0 0
0 0 0 0 0 0 0 1 1 1 1 2 2 3 6 8 9 9 9 7 6 5 9 14 11 6 5 5 3 2 2 1 0 0 0 0 0 0 0 0 0 0 0 0 0 0 0 0 0
0 0 0 0 0 0 0 1 1 0 1 3 3 5 11 16 18 16 13 9 7 6 10 14 11 5 4 3 3 2 1 0 0 0 0 0 0 0 0 0 0 0 0 0 0 0 0 0 0
0 0 0 0 0 0 0 1 1 1 3 4 4 6 19 32 35 28 22 16 12 9 12 15 13 7 3 1 2 2 1 0 0 0 0 0 0 0 0 0 0 0 0 0 0 0 0 0 0
0 0 0 0 0 0 0 1 1 2 4 6 8 14 34 54 55 47 40 32 25 19 17 17 16 12 7 3 2 1 0 0 0 0 0 0 0 0 0 0 0 0 0 0 0 0 0 0 0
0 0 0 0 0 0 0 1 2 2 5 9 15 29 53 68 67 59 53 48 41 33 26 21 18 16 13 10 7 5 3 1 0 0 0 0 0 0 0 0 0 0 0 0 0 0 0 0 0
0 0 0 0 0 0 0 1 1 2 5 10 19 40 63 72 68 61 56 53 49 43 35 27 24 21 20 19 16 13 8 3 0 0 0 0 0 0 0 0 0 0 0 0 0 0 0 0 0
0 0 0 0 0 0 0 0 1 3 6 10 21 43 62 67 64 59 55 52 49 46 40 34 33 34 33 31 26 19 10 4 1 0 0 0 0 0 0 0 0 0 0 0 0 0 0 0 0
0 0 0 0 0 0 0 0 2 5 6 11 25 44 57 60 57 54 52 49 47 46 44 41 44 47 47 42 32 20 10 5 2 0 0 0 0 0 0 0 0 0 0 0 0 0 0 0 0
0 0 0 0 0 0 0 1 4 7 8 14 29 41 49 51 51 50 49 46 45 46 47 49 51 53 51 44 32 21 11 5 3 1 0 0 1 1 0 0 0 0 0 0 0 0 0 0 0
0 0 0 0 0 0 0 3 8 9 10 18 27 34 39 45 48 47 44 39 39 42 46 49 52 52 49 42 33 23 13 7 5 3 1 1 2 2 1 0 0 0 0 0 0 0 0 0 0
0 0 0 0 0 0 0 5 11 10 10 17 23 25 31 38 42 39 34 29 29 33 37 44 50 51 49 46 39 27 17 12 9 6 3 1 2 2 1 0 0 0 0 0 0 0 0 0 0
0 0 0 0 0 0 0 4 9 7 6 12 18 19 24 29 30 28 24 21 23 25 30 40 50 53 51 50 44 31 21 16 11 7 4 2 2 1 0 0 0 0 0 0 0 0 0 0 0
0 0 0 0 0 0 0 3 6 5 5 10 15 16 18 20 20 19 17 16 19 22 26 35 46 53 52 48 42 33 24 17 11 7 5 3 2 1 0 0 0 0 0 0 0 0 0 0 0
0 0 0 0 0 0 0 1 3 5 6 10 12 13 14 15 14 14 14 13 15 19 23 27 34 44 48 44 38 33 24 14 7 5 4 3 2 1 0 0 0 0 0 0 0 0 0 0 0
0 0 0 0 0 0 0 1 3 5 6 7 7 8 9 10 11 13 13 13 13 14 17 20 24 31 39 39 35 30 21 10 5 4 3 3 2 1 0 0 0 0 0 0 0 0 0 0 0
0 0 0 0 0 0 0 2 4 6 6 4 3 3 4 5 6 10 11 11 10 10 12 15 18 23 28 30 28 23 15 7 3 3 3 2 1 0 0 0 0 0 0 0 0 0 0 0 0
0 0 0 0 0 0 0 1 3 5 6 4 3 2 2 1 2 4 7 8 7 7 9 12 16 20 21 21 19 15 10 6 4 3 3 2 2 1 0 0 0 0 0 0 0 0 0 0 0
0 0 0 0 0 0 0 0 1 3 4 3 3 3 2 1 0 0 2 4 4 5 7 10 13 15 16 14 13 12 9 7 5 4 4 3 2 1 0 0 0 0 0 0 0 0 0 0 0
0 0 0 0 0 0 0 0 0 1 1 2 3 2 2 2 1 0 0 1 2 4 5 7 9 10 10 9 9 10 10 7 5 3 3 3 2 1 0 0 0 0 0 0 0 1 0 0 0
0 0 0 0 0 0 0 0 0 0 0 1 1 2 2 3 2 1 0 0 2 3 4 4 5 6 6 6 6 7 7 6 4 3 3 3 2 0 0 0 0 0 0 0 0 0 0 0 0
0 0 0 0 0 0 0 0 0 0 0 0 1 2 3 5 5 3 1 1 1 2 4 3 2 3 4 4 4 4 5 5 4 3 3 2 1 0 0 1 1 1 0 0 0 0 0 0 0
0 0 0 0 0 0 0 0 0 0 0 0 1 3 5 7 7 5 4 2 1 2 3 3 2 1 2 2 3 3 3 3 4 4 3 1 1 0 0 1 2 2 1 1 0 0 0 0 0
0 0 0 0 0 0 0 0 0 1 0 0 1 4 6 7 7 6 5 3 2 2 3 3 3 2 1 1 1 1 1 2 4 5 4 1 0 0 0 1 2 2 2 1 0 0 0 0 0
0 0 0 0 0 0 0 0 0 0 0 0 1 4 8 9 8 7 6 4 2 2 3 3 3 3 2 1 0 0 1 2 4 5 4 3 2 1 1 0 1 2 2 2 1 1 0 0 0
0 0 0 0 0 0 0 0 0 0 0 0 1 5 10 11 8 7 7 5 3 2 3 3 3 3 3 2 1 1 1 2 4 5 4 4 3 3 2 1 1 2 3 2 2 2 1 0 0
Wind_Speed
10 8 5 5 7 5 2 3 2 1 1 2 1 1 2 2 3 5 6 16 19 19 20 19 15 15 15 15 14 14 14 14 14 13 12 11 10 10 9 9 8 8 8 8 8 8 8 7 8
6 4 6 6 7 1 4 2 1 3 3 2 2 3 2 1 4 5 8 16 20 20 19 18 18 16 16 15 15 14 14 14 14 13 12 11 10 10 9 9 8 8 8 8 8 8 8 8 8
5 6 7 6 4 3 4 2 2 1 1 2 2 1 2 3 4 5 10 19 20 19 18 18 19 17 16 15 15 14 14 14 13 12 11 11 10 9 9 9 8 8 8 8 8 8 8 8 8
5 6 6 7 2 2 2 2 2 2 3 3 3 2 4 5 3 6 15 20 20 19 18 20 18 17 16 15 15 15 14 14 13 12 11 10 10 9 9 8 8 8 8 8 8 8 7 7 7
6 6 8 5 1 2 2 3 3 4 3 3 5 2 4 5 4 10 17 19 19 18 17 20 18 17 17 16 15 14 14 13 13 11 10 10 9 9 8 8 7 8 8 8 8 7 7 6 6
6 6 7 1 4 1 0 1 4 4 3 3 4 4 4 6 8 14 17 18 18 17 17 19 18 17 16 15 15 14 14 13 12 11 10 9 9 8 7 7 7 7 8 7 7 6 6 5 5
7 6 3 2 2 1 2 1 3 4 4 3 3 3 6 8 10 15 16 16 16 16 16 17 17 16 16 15 14 14 13 12 11 10 10 9 8 8 7 6 6 6 6 6 6 6 5 5 5
6 6 4 1 2 2 2 2 3 6 3 1 4 4 4 11 13 15 15 15 15 15 15 15 15 14 15 15 14 13 12 12 11 10 9 9 8 8 6 7 6 5 5 5 5 5 5 5 5
7 8 2 2 3 4 3 5 3 3 4 4 5 2 6 16 16 16 15 15 15 14 13 14 14 13 13 13 14 14 13 11 11 10 9 8 7 8 7 6 6 4 4 4 4 4 4 3 6
7 7 2 4 6 8 7 8 6 6 8 8 6 5 12 17 17 18 18 18 18 16 15 12 13 13 12 10 11 9 9 10 8 7 8 6 4 3 3 9 4 4 4 5 4 4 5 7 5
6 7 6 7 7 9 10 8 6 9 8 6 6 10 15 18 17 18 18 18 18 17 15 13 12 12 11 8 8 6 5 6 7 7 6 4 3 3 3 4 6 5 6 5 7 7 4 2 1
7 8 8 9 10 10 10 8 6 7 6 4 3 10 17 18 17 17 17 17 16 16 15 14 13 11 10 8 7 7 6 6 5 6 6 4 3 2 2 2 3 3 3 2 3 2 2 2 2
9 9 10 11 10 8 8 8 6 4 4 2 3 11 15 16 15 14 14 14 15 15 15 13 12 11 10 8 6 7 6 6 6 5 5 4 3 3 2 2 1 3 2 3 3 2 3 3 4
7 11 12 9 6 4 6 5 3 1 2 2 6 10 12 13 14 14 14 15 15 14 14 13 13 12 11 8 7 6 6 5 5 5 5 4 2 2 2 3 2 2 2 1 2 2 3 3 2
9 11 9 2 3 2 7 4 1 3 1 3 6 7 9 10 12 13 14 14 14 14 13 13 13 12 11 10 9 6 6 6 5 4 4 4 3 3 3 2 3 2 2 2 3 3 3 4 4
9 10 5 2 3 2 7 5 6 2 2 4 6 7 8 8 9 10 11 11 12 13 13 13 12 12 11 9 8 6 5 5 4 4 4 4 3 3 3 3 3 2 3 3 2 3 3 2 3
9 6 5 3 2 5 6 6 4 1 2 4 6 7 8 8 8 9 9 10 12 13 14 13 12 12 11 10 7 7 5 5 4 4 4 4 4 4 4 2 2 3 3 2 2 2 2 2 2
4 6 6 6 6 8 8 6 2 1 2 4 5 6 7 8 8 8 8 9 10 12 13 13 12 11 10 8 7 6 6 5 4 4 4 4 4 4 3 3 3 3 2 2 1 1 1 1 2
8 9 9 7 6 8 8 8 3 2 4 4 5 6 7 8 8 8 8 9 10 11 12 12 11 11 10 8 8 7 7 6 5 5 5 5 4 5 3 2 4 3 2 1 3 3 4 3 2
10 11 9 6 4 7 9 9 1 3 4 4 6 7 8 8 9 9 8 9 10 12 12 12 12 12 11 8 7 6 6 5 5 4 5 5 5 5 4 2 3 3 2 2 2 2 2 2 2
12 11 9 10 9 7 8 6 4 5 5 5 5 6 6 7 8 8 8 9 10 11 12 12 12 12 11 10 7 7 6 5 5 5 5 5 5 4 3 3 3 2 4 3 2 3 4 3 3
12 7 8 9 11 7 5 9 1 4 5 7 7 7 7 7 7 7 7 9 10 11 11 12 12 12 11 11 10 11 8 7 6 6 5 6 5 5 4 4 3 3 2 2 4 3 2 3 3
11 5 7 9 10 10 5 8 2 4 3 5 7 8 7 7 7 7 6 8 8 10 11 11 11 12 12 11 11 11 8 6 6 6 7 6 6 5 5 4 4 3 2 2 1 1 3 3 4
6 7 8 9 10 10 4 7 5 2 1 2 7 8 8 7 7 7 7 8 8 9 10 10 11 11 12 12 12 11 10 8 8 8 8 7 6 6 6 5 4 4 2 3 2 2 3 2 2
10 10 9 10 9 5 1 6 4 3 1 2 6 9 9 8 8 9 9 9 10 11 11 11 12 12 12 13 12 11 10 10 10 9 8 7 6 6 6 6 5 4 3 3 3 3 2 2 2
12 13 11 9 8 5 3 5 3 3 3 4 5 8 10 10 10 10 10 10 10 11 12 12 13 13 13 12 11 10 10 9 8 9 7 7 5 5 6 6 6 5 5 5 4 4 4 3 3
11 12 11 11 11 10 6 4 2 4 6 7 8 9 10 10 10 11 11 11 11 11 11 11 12 13 13 12 11 10 10 9 7 8 8 7 5 5 7 7 6 6 6 5 5 3 3 4 5
10 8 6 10 10 11 8 6 2 3 6 9 10 10 11 11 11 11 11 11 11 11 11 11 12 12 12 12 11 10 11 9 8 8 7 6 5 5 6 7 6 6 6 6 6 5 4 5 4
9 10 10 9 9 10 10 4 3 0 3 8 11 11 12 12 13 12 11 11 11 12 12 12 12 12 11 11 10 10 10 10 9 7 7 6 6 6 6 6 6 6 6 6 6 6 5 6 6
9 11 11 10 10 10 11 7 3 1 3 7 10 11 12 12 12 12 12 12 12 12 12 12 12 12 12 11 10 10 9 9 8 8 7 6 6 6 6 6 6 6 6 6 7 7 7 7 6
Wind_Direction
195 210 233 244 239 228 57 60 4 24 71 62 110 230 291 330 344 46 97 149 148 148 144 152 152 149 145 141 138 135 135 134 134 134 134 134 134 131 128 125 118 112 107 103 98 93 92 95 102
194 212 236 241 257 189 94 65 345 20 47 99 185 222 251 102 53 87 137 149 151 149 148 153 149 150 147 143 140 138 137 136 136 135 134 132 130 128 125 120 117 113 108 104 99 95 95 97 103
205 238 260 252 256 356 51 56 19 52 128 214 200 242 332 56 106 131 145 153 155 149 149 144 152 152 149 145 142 141 139 138 137 136 135 132 130 128 123 117 113 108 107 102 96 95 96 99 106
218 226 236 251 242 52 337 351 342 222 190 215 236 171 101 57 100 138 149 159 155 150 151 145 156 153 151 148 146 143 141 139 138 137 136 134 131 128 122 117 113 107 103 98 95 96 98 100 105
240 253 239 220 112 68 291 306 271 248 210 204 233 250 113 99 115 141 154 160 155 155 152 147 157 154 153 151 149 146 143 142 140 139 138 136 131 126 123 119 114 107 102 98 95 95 98 101 109
236 246 247 148 93 78 217 238 236 247 234 210 233 245 106 119 141 147 157 160 158 156 152 145 156 156 155 154 152 148 146 144 143 141 139 136 129 125 125 125 117 109 102 99 97 93 91 95 104
265 264 278 356 58 109 31 322 267 268 242 219 227 236 126 140 143 152 158 160 159 159 152 151 159 159 158 156 154 152 150 148 145 142 140 136 133 134 132 125 121 116 112 109 105 98 87 82 94
277 270 229 188 312 30 38 291 296 288 291 143 214 241 152 145 148 153 157 161 161 163 156 156 163 161 163 159 157 154 152 151 146 144 144 142 144 149 144 156 130 126 126 125 119 109 94 84 93
259 253 238 34 333 339 340 291 277 265 233 205 212 282 101 140 152 157 161 163 165 166 162 164 161 163 166 161 153 158 156 153 156 155 152 171 175 160 169 123 122 139 143 140 133 122 114 134 132
245 263 2 344 311 310 310 298 280 241 232 220 195 141 135 149 160 167 169 170 170 170 170 166 162 164 167 160 154 163 165 159 175 156 165 179 155 159 148 118 145 154 159 165 151 140 177 225 166
245 278 319 307 302 301 297 291 274 259 258 250 219 170 160 164 169 176 177 175 173 170 171 168 166 169 164 158 159 159 158 159 166 158 167 162 175 175 178 168 166 178 189 192 160 190 207 200 95
258 274 284 290 304 295 294 293 284 270 296 338 253 170 168 175 177 180 180 177 171 169 172 171 165 166 167 162 159 161 163 164 163 156 182 170 184 195 178 202 179 188 187 179 204 191 180 186 191
250 281 293 292 291 294 286 277 282 288 307 327 156 164 175 179 178 178 177 175 172 170 172 170 166 165 164 162 171 165 164 163 157 159 170 185 186 192 177 189 213 231 185 187 202 203 181 193 197
292 292 289 288 297 279 277 278 250 339 345 156 159 169 177 177 175 174 175 176 175 173 173 170 170 168 167 169 170 161 162 160 160 165 160 187 193 178 189 191 194 215 219 224 223 189 194 212 195
281 280 268 227 308 321 290 246 101 42 107 151 159 165 168 175 177 178 179 178 178 174 175 175 174 172 172 171 169 164 165 162 163 151 157 178 193 178 199 187 193 185 189 185 215 203 210 211 197
250 254 261 72 358 340 291 333 78 71 161 157 159 160 165 171 180 180 179 178 180 178 176 179 178 173 172 169 168 162 164 154 160 157 157 170 172 186 210 197 176 160 196 194 188 225 211 206 206
227 259 305 347 14 325 294 324 65 89 179 163 164 166 168 170 179 179 181 180 181 183 181 180 180 175 172 166 165 158 153 153 156 160 161 158 177 182 209 198 128 194 198 200 214 170 232 197 199
271 291 299 323 351 320 306 324 31 163 198 174 169 172 175 181 185 182 183 183 184 186 184 178 176 172 166 161 160 157 154 157 159 161 152 162 173 179 196 175 165 214 193 186 187 146 205 242 212
290 289 295 319 344 312 313 318 328 181 198 185 184 182 184 185 181 180 178 178 179 182 180 176 176 170 168 166 168 166 162 164 160 163 158 169 176 169 202 186 162 227 191 211 193 203 173 195 190
261 271 283 302 340 309 310 304 307 187 208 204 196 192 188 183 179 179 177 178 181 181 180 178 177 175 174 169 166 164 156 163 154 154 150 170 175 179 181 200 198 191 173 191 207 232 243 162 198
251 264 290 310 311 253 291 278 168 174 193 195 197 191 187 185 185 181 183 187 185 184 185 180 176 174 175 165 158 153 152 160 159 163 164 177 180 183 175 185 215 189 219 171 205 212 228 216 193
250 259 284 293 291 308 323 312 145 169 199 197 192 187 188 182 182 181 185 190 191 187 182 178 174 172 171 168 173 173 177 175 171 172 161 169 181 183 178 183 189 215 222 158 208 187 233 248 222
257 284 279 282 284 285 264 291 355 163 226 191 183 183 185 177 176 175 179 181 180 177 174 170 169 169 170 177 178 180 182 174 165 167 160 178 175 188 188 187 186 198 213 177 239 168 249 243 261
236 240 246 252 261 267 302 299 316 52 332 163 166 174 178 172 167 163 166 164 164 168 168 167 165 166 171 178 181 185 180 174 167 174 171 186 177 186 185 189 190 200 195 177 199 207 200 260 293
221 238 244 240 237 261 93 279 314 31 103 166 163 167 172 171 166 162 165 165 164 166 167 169 169 169 176 181 185 185 183 180 181 184 182 191 181 182 178 186 191 198 193 199 203 208 230 211 224
222 238 252 270 278 287 214 267 346 96 137 150 158 161 168 171 168 166 166 165 167 168 169 171 174 174 178 182 184 185 186 190 188 192 188 189 192 182 169 185 193 199 200 203 201 219 205 208 223
223 234 257 268 271 276 275 270 236 162 175 171 164 164 172 172 168 168 166 167 168 170 170 174 177 177 179 182 182 185 190 197 191 183 195 190 192 184 179 190 197 201 203 209 211 223 217 209 226
252 247 232 251 264 271 267 265 279 180 182 175 175 175 171 171 171 169 167 167 167 169 170 172 173 174 176 179 184 185 189 190 189 195 193 191 192 194 192 197 201 203 202 205 218 219 209 222 228
203 220 238 253 266 275 280 288 67 321 199 183 178 175 172 173 171 169 168 167 168 168 169 171 173 174 177 181 186 187 186 185 187 194 195 195 202 197 204 206 208 209 209 207 213 232 217 225 228
246 239 233 246 251 254 273 283 96 183 191 186 173 167 169 171 169 169 167 167 170 171 171 173 175 177 179 181 183 187 187 185 188 194 199 200 207 211 209 213 214 217 216 214 217 225 223 225 230